#timestamp,LO_Frequency,Hit,StdDev 
1508716815.4,286046993.5,P
1508716835.3,286046992.4,Y
1508716855.1,286047000.0,P
1508716856.0,286047000.0,N
1508716875.8,286047001.0,N
1508716895.7,286046998.8,N
1508716915.5,286046998.6,N
1508716935.3,286047001.4,N
1508716955.2,286047007.6,Y
1508716975.0,286047010.8,P
1508716975.9,286047010.8,N
1508716995.7,286047010.6,N
1508717015.6,286047013.5,N
1508717035.4,286047013.5,N
1508717055.2,286047009.0,N
1508717075.1,286047009.5,N
1508717076.0,286047009.5,N
1508717095.8,286047011.1,N
1508717115.7,286047010.9,N
1508717135.5,286047007.8,N
1508717155.3,286047007.4,N
1508717175.1,286047007.4,N
1508717195.9,286047008.7,N
1508717215.7,286047006.9,N
1508717235.6,286047010.7,Y
1508717255.4,286047000.2,P
1508717275.2,286047000.5,N
1508717295.1,286046999.3,N
1508717296.0,286046999.3,N
1508717315.8,286046999.6,N
1508717335.6,286046996.9,N
1508717355.5,286046998.0,N
1508717375.3,286046999.3,N
1508717395.1,286047000.9,N
1508717415.9,286047004.0,N
1508717435.7,286047000.9,N
1508717455.5,286046998.2,N
1508717475.4,286046999.7,N
1508717495.2,286047002.6,N
1508717515.0,286047001.2,N
1508717515.9,286047001.2,N
1508717535.8,286046995.6,N
1508717555.6,286046991.8,N
1508717575.5,286046987.7,Y
1508717595.3,286046994.3,P
1508717615.1,286046999.0,N
1508717635.8,286047003.2,N
1508717655.7,286047004.5,N
1508717675.5,286047008.8,N
1508717695.3,286047012.2,N
1508717715.2,286047016.8,N
1508717735.0,286047017.1,N
1508717735.9,286047017.1,N
1508717755.7,286047016.2,N
1508717775.6,286047021.3,N
1508717795.4,286047021.4,N
1508717815.3,286047021.7,N
1508717835.1,286047021.0,N
1508717836.0,286047021.0,N
1508717855.8,286047021.6,N
1508717875.7,286047018.5,N
1508717895.5,286047018.6,N
1508717915.3,286047020.4,N
1508717935.2,286047017.2,N
1508717955.9,286047016.9,N
1508717975.7,286047018.6,N
1508717995.6,286047021.0,N
1508718015.4,286047023.0,N
1508718035.2,286047019.8,N
1508718055.1,286047016.3,N
1508718056.0,286047016.3,N
1508718075.8,286047013.3,N
1508718095.6,286047014.7,N
1508718115.5,286047015.4,N
1508718135.3,286047015.8,N
1508718155.1,286047016.7,N
1508718175.9,286047015.3,Y
1508718195.7,286046998.0,P
1508718215.5,286046998.5,N
1508718235.4,286046998.2,N
1508718255.2,286047004.3,N
1508718275.0,286047003.7,N
1508718276.0,286047003.7,N
1508718295.8,286047007.2,N
1508718315.6,286047005.7,N
1508718335.5,286047004.1,N
1508718355.3,286047002.1,N
1508718375.1,286046998.4,N
1508718395.9,286046997.3,N
1508718415.7,286046999.0,N
1508718435.5,286046996.7,N
1508718455.4,286047002.5,N
1508718475.2,286047000.4,N
1508718495.0,286047000.8,N
1508718495.9,286047000.8,N
1508718515.8,286046994.4,N
1508718535.6,286046988.7,N
1508718555.4,286046982.6,Y
1508718575.3,286046978.6,P
1508718595.1,286046972.6,N
1508718615.8,286046970.9,N
1508718635.7,286046973.1,N
1508718655.5,286046974.6,N
1508718675.3,286046976.3,N
1508718695.2,286046979.3,N
1508718715.0,286046983.3,N
1508718715.9,286046983.3,N
1508718735.7,286046984.8,N
1508718755.6,286046983.3,N
1508718775.4,286046983.8,N
1508718795.2,286046986.1,N
1508718815.1,286046983.7,N
1508718816.0,286046983.7,N
1508718835.8,286046987.4,N
1508718855.7,286046989.6,N
1508718875.5,286046988.4,N
1508718895.3,286046989.7,N
1508718915.2,286046989.8,N
1508718935.9,286046993.0,N
1508718955.7,286046989.0,N
1508718975.6,286046989.0,N
1508718995.4,286046991.1,N
1508719015.2,286046993.2,N
1508719035.1,286046990.1,N
1508719036.0,286046990.1,N
1508719055.8,286046992.0,N
1508719075.6,286046994.1,N
1508719095.5,286046990.6,N
1508719115.3,286046985.9,N
1508719135.1,286046987.9,N
1508719155.9,286046985.6,N
1508719175.7,286046983.0,Y
1508719195.5,286046993.5,P
1508719215.4,286046995.0,N
1508719235.2,286046994.3,N
1508719255.0,286046994.7,N
1508719256.0,286046994.7,N
1508719275.8,286046996.2,N
1508719295.6,286046995.2,N
1508719315.4,286046995.9,N
1508719335.3,286046993.9,N
1508719355.1,286046995.7,N
1508719375.8,286046995.1,N
1508719395.7,286046995.7,N
1508719415.5,286046994.0,N
1508719435.4,286046992.5,Y
1508719455.2,286046997.8,P
1508719475.0,286047002.5,N
1508719475.9,286047002.5,N
1508719495.8,286047007.4,N
1508719515.6,286047010.3,N
1508719535.4,286047010.2,N
1508719555.3,286047011.1,N
1508719575.1,286047016.3,N
1508719576.0,286047016.3,N
1508719595.8,286047011.4,N
1508719615.7,286047011.3,N
1508719635.5,286047017.1,N
1508719655.3,286047016.2,N
1508719675.2,286047013.0,N
1508719695.0,286047010.3,N
1508719695.9,286047010.3,N
1508719715.7,286047008.9,N
1508719735.6,286047013.9,N
1508719755.4,286047011.5,N
1508719775.2,286047013.9,N
1508719795.1,286047011.8,N
1508719796.0,286047011.8,N
1508719815.8,286047008.9,N
1508719835.7,286047010.3,N
1508719855.5,286047007.4,N
1508719875.3,286047002.9,N
1508719895.2,286047003.3,N
1508719915.9,286047004.4,N
1508719935.7,286047003.6,N
1508719955.6,286047001.6,N
1508719975.4,286047002.2,N
1508719995.2,286047004.1,N
1508720015.1,286047003.8,N
1508720016.0,286047003.8,N
1508720035.8,286047006.0,N
1508720055.6,286047002.0,N
1508720075.5,286047003.4,N
1508720095.3,286047005.9,N
1508720115.1,286047001.3,N
1508720135.9,286047004.2,N
1508720155.7,286047004.3,N
1508720175.5,286047002.5,N
1508720195.4,286047000.0,N
1508720215.2,286047002.6,N
1508720235.0,286046999.1,N
1508720235.9,286046999.1,N
1508720255.8,286046994.9,N
1508720275.6,286046995.4,N
1508720295.4,286046994.8,N
1508720315.3,286046995.4,N
1508720335.1,286046993.6,N
1508720355.8,286046992.4,N
1508720375.7,286046992.0,N
1508720395.5,286046995.8,N
